Content
SEND FEEDBACK

Daily
Averages
Monthly
Summary
France

TOULOUSE, FRANCE


Home > Europe > France
Elevation: 538 feet     Latitude: 43 33N     Longitude: 001 23E

WEATHER
 
SELECT A DAY
Number of Records: 277,573;   Date Range: 7/1/96 - 4/21/13
 
SHARE

PRINT THIS DATA

[ ← Previous Day ]
WEATHER ALMANAC - JANUARY 23, 2013
[ Next Day → ]
[ °C ]   °F
Weather ElementAverageHighLow
Temperature40.5 °F46.4 °F (2:00 pm)33.8 °F (6:30 am)
Dewpoint35.7 °F41 °F (2:00 pm)32 °F (6:00 am)
Humidity82.9 %93 % (6:30 am)70 % (7:00 pm)
Barometer29.72 in29.83 in (7:00 pm)29.62 in (1:00 am)
Wind Speed10 mph20.7 mph (3:00 pm)
Weather ElementAverage
Visibility7.4 mi
Wind DirectionWSW (250.4 °)

Weather ElementTotal
Precipitation---
Heating Degree Days24.9 (Base 65)
Averaged from 51 records on January 23, 2013
WEATHER CONDITIONS BREAKOUT
WIND DIRECTION BREAKOUT
WEATHER BY HOUR - JANUARY 23, 2013
[ °C ]   °F
Local TimeTemperatureDewpointHumidityBarometerVisibilityWind DirectionWind SpeedGust SpeedPrecipitationEventsConditions
12:30 AM39.2 °F35.6 °F87 %29.65 in6.2 miWest (280°)5.8 mphOvercast
1:00 AM39.0 °F35.0 °F81 %29.66 in37.0 miWest (270°)5.8 mphClear
1:00 AM39.2 °F35.6 °F87 %29.62 in6.2 miWest (270°)5.8 mphOvercast
1:30 AM39.2 °F35.6 °F87 %29.62 in6.2 miWest (260°)10.4 mph
2:00 AM39.2 °F35.6 °F87 %29.62 in6.2 miWest (260°)8.1 mph
2:30 AM39.2 °F33.8 °F81 %29.65 in6.2 miWest (260°)8.1 mph
3:00 AM39.2 °F33.8 °F81 %29.65 in6.2 miWSW (250°)11.5 mph
3:30 AM37.4 °F33.8 °F87 %29.65 in6.2 miWest (260°)11.5 mph
4:00 AM37.4 °F33.8 °F87 %29.65 in6.2 miWest (260°)10.4 mph
4:30 AM37.4 °F33.8 °F87 %29.65 in6.2 miWSW (250°)8.1 mphOvercast
5:00 AM37.4 °F33.8 °F87 %29.65 in6.2 miWest (260°)9.2 mphOvercast
5:30 AM37.4 °F33.8 °F87 %29.65 in6.2 miWest (260°)5.8 mphOvercast
6:00 AM35.6 °F32.0 °F87 %29.65 in6.2 miSSE (160°)2.3 mph
6:30 AM33.8 °F32.0 °F93 %29.65 in6.2 miSouth (180°)3.5 mph
7:00 AM34.0 °F32.0 °F88 %29.69 in19.0 miSSE (160°)2.3 mphClear
7:00 AM33.8 °F32.0 °F93 %29.65 in6.2 miVariable2.3 mphMostly Cloudy
7:30 AM33.8 °F32.0 °F93 %29.65 in6.2 miVariable2.3 mphLight Drizzle
8:00 AM37.4 °F33.8 °F87 %29.65 in6.2 miWSW (250°)8.1 mphMostly Cloudy
8:30 AM39.2 °F33.8 °F81 %29.65 in6.2 miWest (260°)13.8 mphMostly Cloudy
9:00 AM39.2 °F33.8 °F81 %29.68 in6.2 miWSW (250°)11.5 mphMostly Cloudy
9:30 AM39.2 °F33.8 °F81 %29.68 in6.2 miWSW (250°)11.5 mphMostly Cloudy
10:00 AM41.0 °F35.6 °F81 %29.68 in6.2 miWest (260°)13.8 mphOvercast
10:30 AM41.0 °F35.6 °F81 %29.71 in6.2 miWest (260°)13.8 mphMostly Cloudy
11:00 AM41.0 °F37.4 °F87 %29.71 in6.2 miWest (260°)15.0 mphMostly Cloudy
11:30 AM42.8 °F37.4 °F81 %29.74 in6.2 miWest (260°)13.8 mphOvercast
12:00 PM42.8 °F39.2 °F87 %29.74 in6.2 miWest (260°)13.8 mphOvercast
12:30 PM44.6 °F39.2 °F81 %29.74 in6.2 miWest (270°)13.8 mphOvercast
1:00 PM44.0 °F39.0 °F76 %29.76 in9.0 miWest (280°)13.8 mphRainLight Rain
1:00 PM44.6 °F39.2 °F81 %29.74 in6.2 miWest (280°)13.8 mphRainLight Rain
1:30 PM44.6 °F39.2 °F81 %29.74 in6.2 miWest (270°)15.0 mphOvercast
2:00 PM46.4 °F41.0 °F81 %29.74 in6.2 miWest (270°)15.0 mphOvercast
2:30 PM46.4 °F39.2 °F76 %29.74 in6.2 miWest (260°)18.4 mphMostly Cloudy
3:00 PM46.4 °F39.2 °F76 %29.74 in6.2 miWest (260°)20.7 mphMostly Cloudy
3:30 PM46.4 °F39.2 °F76 %29.74 in6.2 miWest (260°)13.8 mphMostly Cloudy
4:00 PM44.6 °F39.2 °F81 %29.74 in6.2 miWest (280°)12.7 mphMostly Cloudy
4:30 PM44.6 °F39.2 °F81 %29.77 in6.2 miWest (280°)12.7 mphMostly Cloudy
5:00 PM44.6 °F39.2 °F81 %29.77 in6.2 miWNW (290°)12.7 mphMostly Cloudy
5:30 PM44.6 °F35.6 °F71 %29.77 in6.2 miNW (310°)18.4 mphMostly Cloudy
6:00 PM42.8 °F35.6 °F76 %29.80 in6.2 miNW (310°)13.8 mphScattered Clouds
6:30 PM41.0 °F33.8 °F76 %29.80 in6.2 miNW (310°)11.5 mphMostly Cloudy
7:00 PM41.0 °F35.0 °F70 %29.83 in19.0 miNW (310°)9.2 mphClear
7:00 PM41.0 °F33.8 °F76 %29.80 in6.2 miNW (310°)9.2 mphOvercast
7:30 PM41.0 °F33.8 °F76 %29.80 in6.2 miWNW (300°)5.8 mphMostly Cloudy
8:00 PM41.0 °F35.6 °F81 %29.80 in6.2 miWest (280°)5.8 mphMostly Cloudy
8:30 PM41.0 °F35.6 °F81 %29.80 in6.2 miWest (270°)8.1 mphOvercast
9:00 PM41.0 °F35.6 °F81 %29.80 in6.2 miWest (260°)6.9 mphMostly Cloudy
9:30 PM39.2 °F35.6 °F87 %29.80 in6.2 miWSW (250°)6.9 mphMostly Cloudy
10:00 PM39.2 °F37.4 °F93 %29.80 in6.2 miSW (230°)5.8 mphMostly Cloudy
10:30 PM41.0 °F37.4 °F87 %29.77 in6.2 miWest (260°)8.1 mphOvercast
11:00 PM39.2 °F35.6 °F87 %29.77 in6.2 miSW (230°)6.9 mphPartly Cloudy
11:30 PM39.2 °F35.6 °F87 %29.74 in6.2 miSouth (190°)4.6 mph
Hourly data recorded from LFBF, located miles away from Toulouse, France







STORIES FROM OUR PARTNERS